Home   Weather   43°11'N, 78°39'W   Past weeks
Flag for USA

Past Weather in 43°11'N, 78°39'W, USA — Yesterday and Last 2 Weeks

Now
14 °F

Passing clouds.


Feels Like: 5 °F
Forecast: 37 / 16 °F
Wind: 6 mph from South

Location: Greater Buffalo International Airport

Current Time: Feb 19, 2019 at 10:59:09 pm

Latest Report: Feb 19, 2019 at 9:54 pm


Visibility: 10 mi

Pressure: 30.60 "Hg

Humidity: 77%

Dew Point: 8 °F

Location of 43°11'N, 78°39'WLocation

Past Weather in 43°11'N, 78°39'W — Graph

°F

43°11'N, 78°39'W Temperature Yesterday

Maximum temperature yesterday: 22 °F (at 12:35 am)
Minimum temperature yesterday: 13 °F (at 11:54 pm)
Average temperature yesterday: 20 °F

High & Low Weather Summary for the Past Weeks

 TemperatureHumidityPressure
High60 °F (Feb 7, 11:54 pm)100% (Feb 5, 1:17 am)30.80 "Hg (Feb 5, 1:17 am)
Low6 °F (Feb 19, 3:54 am)47% (Feb 15, 1:54 am)29.46 "Hg (Feb 12, 8:23 pm)
Average26 °F79%30.06 "Hg
* Reported Feb 4 9:54 pm — Feb 19 9:54 pm, 43°11'N, 78°39'W. Weather by CustomWeather, © 2019

Note: Actual official high and low records may vary slightly from our data, if they occured in-between our weather recording intervals... More about our weather records

Advertising

43°11'N, 78°39'W Weather History for the Previous 24 Hours

Scroll right to see more
 ConditionsComfort  
Time TempWeatherWind HumidityBarometerVisibility
9:54 pm
Tue, Feb 19
14 °FPassing clouds.6 mph77%30.60 "Hg10 mi
8:54 pm14 °FPassing clouds.8 mph80%30.61 "Hg10 mi
7:54 pm17 °FPassing clouds.6 mph76%30.63 "Hg10 mi
6:54 pm18 °FPassing clouds.5 mph74%30.65 "Hg10 mi
5:54 pm20 °FPassing clouds.8 mph68%30.64 "Hg10 mi
4:54 pm22 °FPartly sunny.12 mph60%30.65 "Hg10 mi
3:54 pm21 °FScattered clouds.12 mph68%30.65 "Hg10 mi
3:26 pm21 °FScattered clouds.14 mph71%30.60 "Hg10 mi
2:54 pm22 °FLight snow. Broken clouds.15 mph68%30.66 "Hg10 mi
1:54 pm21 °FLight snow. Broken clouds.13 mph74%30.66 "Hg10 mi
12:54 pm20 °FLight snow. Broken clouds.15 mph74%30.69 "Hg10 mi
11:54 am19 °FPartly sunny.14 mph74%30.71 "Hg10 mi
10:54 am18 °FPartly sunny.12 mph74%30.70 "Hg10 mi
9:54 am14 °FLight snow. Partly sunny.8 mph80%30.69 "Hg10 mi
8:54 am12 °FLight snow. Partly sunny.8 mph88%30.68 "Hg10 mi
7:54 am10 °FLight snow. Partly sunny.9 mph88%30.66 "Hg9 mi
6:54 am9 °FLight snow. Mostly cloudy.7 mph88%30.63 "Hg9 mi
6:20 am8 °FPassing clouds.9 mph83%30.58 "Hg10 mi
5:54 am7 °FPassing clouds.8 mph83%30.62 "Hg10 mi
4:54 am6 °FPassing clouds.7 mph83%30.59 "Hg10 mi
3:54 am6 °FPassing clouds.5 mph87%30.57 "Hg10 mi
2:54 am8 °FPassing clouds.3 mph83%30.56 "Hg10 mi
1:54 am12 °FPassing clouds.5 mph73%30.55 "Hg10 mi
12:54 am12 °FPassing clouds.3 mph73%30.54 "Hg10 mi
11:54 pm
Mon, Feb 18
13 °FClear.9 mph74%30.50 "Hg10 mi
10:54 pm15 °FPassing clouds.10 mph74%30.48 "Hg10 mi
Weather by CustomWeather, © 2019

See weather overview